STARLINK-1802, 46702

Orbit data source: Space-Track

STARLINK-1802, 46702 is a payload satellite owned by SpaceX/Seattle (US) in LEO that was launched on Sun, 18 Oct 2020 UTC via an FALCON 9 launch vehicle from the Air Force Eastern Test Range (AFETR). Payload-class satellites include a variety of spacecraft equipped with specific instruments for various scientific and technological missions. These include communications satellites like Starlink; space stations such as the ISS; scientific satellites like the Hubble; Earth observation satellites from companies like Planet Labs, Umbra, and HawkEye 360; GPS; miniature CubeSats for education and research; and military/defense satellites.

Loading next visibility...
Identifier
46702, 2020-073AJ
Orbit
LEO
Country
Flag of USUS
Related business
Manufacturer
SpaceX/Seattle
Mission
Partially operational Commercial Communications
Bus & Motor
STARLINK, Unknown motor
Mass
260 kg wet, ~248 kg dry
Launch date (UTC)
2020-10-18 (6 years ago)
Launch vehicle
FALCON 9
Launch site
Air Force Eastern Test Range (AFETR)
Object type
Payload
Rocket body
Debris
Shape & HBR
Box + 1 Pan, 10.1 m
Radar Cross Section
13.562 m², Large (>1 m²)

Expand to show TLE details & history
Last TLE update: 1 day ago

TLE from 1 day ago
0 STARLINK-1802
1 46702U 20073AJ  26168.11845509  .00026111  00000-0  67302-3 0  9999
2 46702  53.1572 112.3894 0004125  54.6464 305.4925 15.39040908312747
Epoch: 2026-06-17T02:50Z
TLE epoch observation values (Epoch: 2026-06-17T02:50:34.519Z)
Latitude
-0.00009°
Longitude
164.36478°
Altitude
448.213 km
Speed
7.645 km/s
True Right ascension
07h 29m 33s
True Declination
0° 00' 00"
Sunlit
Object was in daylight at epoch
Visualization orbit readout
Latitude
Unknown
Longitude
Unknown
Altitude
Unknown
Speed
Unknown
Apparent Right ascension
Unknown
Apparent Declination
Unknown
Sunlit
N/A
Visualization observer readout
Local Sidereal Time
14:36:52
Azimuth
Unknown
Elevation
Unknown
Doppler factor
Unknown
Orbital elements
Apogee altitude
452.018 km
Perigee altitude
446.386 km
Semi-major axis
6,827.339 km
Eccentricity
0.00041
Inclination
53.1572°
RAAN
112.3894°
Arg. of periapsis
54.6464°
True anomaly
305.454°
Mean anomaly
305.4925°
Eccentric anomaly
305.47325°
Mean motion
3.84739 °/min
Orbital period
93.57 mins
BSTAR
0.00067302
Loading maneuver chart data...
Computing Atmospheric mass density...

Documentation

Showing up to 5 results
|